Nashville, TN

3:52 AM CDT on March 23, 2017 (GMT -0500)
Nashville International

Weather History for KBNA - March, 2014

Change the Weather History Date:

Wednesday, March 12, 2014

  Actual Average Record
Temperature  
Mean Temperature 50 °F 49 °F  
Max Temperature 66 °F 60 °F 86 °F (1967)
Min Temperature 34 °F 38 °F 15 °F (1998)
Degree Days  
Heating Degree Days 15    
Month to date heating degree days 235  
Since 1 July heating degree days 3420  
Cooling Degree Days 0    
Month to date cooling degree days 0  
Year to date cooling degree days 0  
Moisture  
Dew Point 42 °F    
Average Humidity 67    
Maximum Humidity 84    
Minimum Humidity 49    
Precipitation  
Precipitation 0.05 in 0.13 in 4.66 in (1975)
Month to date precipitation 2.46 1.55  
Year to date precipitation 10.16 9.24  
Snow  
Snow 0.00 in - 3.30 in (1951)
Month to date snowfall 0.1  
Since 1 July snowfall 1.5  
Snow Depth 0.00 in    
Sea Level Pressure  
Sea Level Pressure 29.74 in    
Wind  
Wind Speed 15 mph (WNW)    
Max Wind Speed 29 mph    
Max Gust Speed 40 mph    
Visibility 10 miles    
Events Rain    
T = Trace of Precipitation, MM = Missing Value Source: NWS Daily Summary

Daily Weather History Graph

Daily Weather History Graph

Search for Another Location

Airport or City:

Trip Planner

Search our weather history database for the weather conditions in past years. The results will help you decide how hot, cold, wet, or windy it might be!

Date:

Astronomy

Mar. 12, 2014 Rise Set
Actual Time 7:01 AM CDT 6:51 PM CDT
Civil Twilight 6:36 AM CDT 7:17 PM CDT
Nautical Twilight 6:06 AM CDT 7:46 PM CDT
Astronomical Twilight 5:36 AM CDT 8:16 PM CDT
Moon 3:26 PM CDT (3/12) 4:27 AM CDT (3/12)
Length of Visible Light 12h 40m
Length of Day
11h 49m
Waxing Gibbous, 85% of the Moon is Illuminated
Mar 12
Waxing Gibbous
Mar 16
Full
Mar 23
Last Quarter
Mar 30
New
Apr 7
First Quarter

Hourly Weather History & Observations

Time (CDT) Temp. Windchill Dew Point Humidity Pressure Visibility Wind Dir Wind Speed Gust Speed Precip Events Conditions
12:53 AM 66.0 °F - 55.0 °F 68% 29.55 in 10.0 mi SSW 12.7 mph - N/A   Mostly Cloudy
1:46 AM 64.4 °F - 55.4 °F 73% 29.54 in 10.0 mi SSW 12.7 mph - N/A   Mostly Cloudy
1:53 AM 64.9 °F - 55.9 °F 73% 29.52 in 10.0 mi SSW 11.5 mph 24.2 mph N/A   Overcast
2:26 AM 64.4 °F - 57.2 °F 77% 29.53 in 10.0 mi SSW 13.8 mph 23.0 mph N/A   Overcast
2:53 AM 64.0 °F - 57.9 °F 80% 29.51 in 9.0 mi SW 16.1 mph 24.2 mph 0.00 in Rain Light Rain
3:51 AM 62.6 °F - 57.2 °F 82% 29.51 in 10.0 mi SW 9.2 mph 21.9 mph 0.03 in Rain Light Rain
3:53 AM 63.0 °F - 57.9 °F 84% 29.50 in 10.0 mi SW 12.7 mph 19.6 mph 0.03 in Rain Light Rain
4:29 AM 62.6 °F - 59.0 °F 88% 29.51 in 9.0 mi SSW 11.5 mph - 0.00 in   Overcast
4:53 AM 61.0 °F - 59.0 °F 93% 29.49 in 6.0 mi SSW 9.2 mph - 0.00 in   Overcast
5:31 AM 62.6 °F - 57.2 °F 82% 29.49 in 10.0 mi SSW 9.2 mph 17.3 mph N/A   Mostly Cloudy
5:53 AM 62.1 °F - 57.9 °F 86% 29.48 in 10.0 mi SW 11.5 mph 18.4 mph N/A   Mostly Cloudy
6:53 AM 63.0 °F - 57.0 °F 81% 29.48 in 10.0 mi SW 11.5 mph - N/A   Mostly Cloudy
7:53 AM 63.0 °F - 57.9 °F 84% 29.49 in 10.0 mi WSW 10.4 mph - 0.02 in   Mostly Cloudy
8:22 AM 55.4 °F - 50.0 °F 82% 29.55 in 10.0 mi WNW 18.4 mph 36.8 mph 0.00 in Rain Light Rain
8:53 AM 48.9 °F - 43.0 °F 80% 29.61 in 10.0 mi NW 23.0 mph 34.5 mph 0.00 in   Overcast
9:23 AM 46.4 °F 37.7 °F 39.2 °F 76% 29.66 in 10.0 mi NW 26.5 mph 34.5 mph N/A   Overcast
9:53 AM 45.0 °F 36.6 °F 37.9 °F 76% 29.69 in 10.0 mi NW 21.9 mph 31.1 mph N/A   Overcast
10:53 AM 44.1 °F 35.4 °F 36.0 °F 73% 29.75 in 10.0 mi NW 21.9 mph 36.8 mph N/A   Overcast
11:53 AM 43.0 °F 34.8 °F 33.1 °F 68% 29.79 in 10.0 mi NW 18.4 mph 29.9 mph N/A   Overcast
12:53 PM 43.0 °F 34.5 °F 33.1 °F 68% 29.83 in 10.0 mi NW 19.6 mph 32.2 mph N/A   Overcast
1:53 PM 43.0 °F 34.5 °F 32.0 °F 65% 29.85 in 10.0 mi NW 19.6 mph 33.4 mph N/A   Overcast
2:28 PM 44.6 °F 37.4 °F 32.0 °F 61% 29.87 in 10.0 mi NNW 16.1 mph 27.6 mph N/A   Overcast
2:53 PM 43.0 °F 34.0 °F 30.9 °F 62% 29.88 in 10.0 mi NW 21.9 mph 35.7 mph N/A   Overcast
3:53 PM 44.1 °F 35.4 °F 28.9 °F 55% 29.92 in 10.0 mi NW 21.9 mph 28.8 mph N/A   Overcast
4:53 PM 44.1 °F 36.5 °F 26.1 °F 49% 29.95 in 10.0 mi NNW 17.3 mph 27.6 mph N/A   Overcast
5:53 PM 42.1 °F 34.2 °F 27.0 °F 55% 29.97 in 10.0 mi North 16.1 mph 26.5 mph N/A   Mostly Cloudy
6:53 PM 42.1 °F 34.2 °F 25.0 °F 51% 30.01 in 10.0 mi NNW 16.1 mph 21.9 mph N/A   Mostly Cloudy
7:53 PM 39.9 °F 31.4 °F 25.0 °F 55% 30.05 in 10.0 mi NNW 16.1 mph 26.5 mph 0.00 in   Mostly Cloudy
8:53 PM 39.0 °F 31.8 °F 27.0 °F 62% 30.08 in 10.0 mi NW 11.5 mph - N/A   Partly Cloudy
9:53 PM 35.1 °F 28.6 °F 28.9 °F 78% 30.09 in 10.0 mi North 8.1 mph - N/A   Partly Cloudy
10:53 PM 36.0 °F 30.3 °F 28.0 °F 73% 30.11 in 10.0 mi NNW 6.9 mph - N/A   Partly Cloudy
11:53 PM 35.1 °F 27.4 °F 27.0 °F 72% 30.12 in 10.0 mi NNW 10.4 mph - N/A   Mostly Cloudy